Presure
211 203 196 169 125 139 133 134 94 106 111 108 142 147 121 92 111 113 115 115 108 112 116 114 117 90 116 103 108 106 96 103 103 111 108 114 109 109 111 103 110 118 126 99 118 125 105 139 124
153 157 190 190 224 212 208 97 196 219 192 196 157 267 135 89 109 103 125 108 119 116 110 81 126 125 115 114 112 107 97 113 110 99 112 116 108 107 110 114 117 139 144 140 116 148 139 132 121
103 163 153 158 191 154 89 198 105 106 172 148 213 106 176 164 124 197 83 240 227 179 161 146 104 115 134 120 104 123 121 120 110 139 160 139 114 134 129 134 110 144 163 150 151 138 141 153 123
211 227 201 210 195 198 137 121 223 151 123 130 212 120 207 144 125 121 216 141 249 125 104 131 180 282 130 296 153 324 153 151 117 116 113 111 151 248 125 126 136 143 258 267 77 249 256 254 78
213 223 206 220 213 209 214 168 149 137 152 133 193 215 192 216 218 106 216 242 99 126 151 126 132 165 121 132 119 138 129 344 373 131 149 96 109 166 236 108 173 218 227 205 82 169 149 194 213
191 204 228 204 213 215 194 212 169 184 145 143 139 216 217 218 169 150 187 118 127 160 226 90 203 197 166 209 232 266 205 189 123 136 232 220 207 143 223 191 198 240 170 251 95 83 136 109 188
220 214 203 210 207 201 199 212 209 179 208 251 212 204 213 234 238 217 222 234 154 205 156 127 176 166 279 232 237 216 200 144 217 209 219 209 198 184 201 219 125 196 112 216 191 140 248 167 127
210 209 220 206 190 214 248 215 206 267 265 205 168 210 180 223 204 188 225 224 226 222 242 227 255 278 233 288 248 230 229 217 175 174 228 192 143 164 144 150 223 219 215 212 206 227 217 213 222
210 224 204 193 204 205 211 175 218 229 191 190 223 190 208 219 200 217 218 220 204 230 223 236 161 284 271 280 263 228 212 152 216 210 204 126 166 168 208 214 209 190 131 208 201 185 186 208 225
215 210 215 224 227 244 238 229 224 190 230 208 223 218 219 187 213 202 219 222 213 219 218 227 250 286 283 279 247 232 225 237 159 221 210 199 93 182 203 204 112 201 189 147 214 188 189 227 177
201 275 262 285 288 221 200 259 154 232 219 170 222 219 214 218 214 209 214 213 210 220 216 219 264 255 275 270 258 241 228 220 205 211 223 221 200 193 90 164 163 198 198 199 185 212 179 181 183
228 243 270 253 270 165 245 275 254 250 229 223 218 215 214 206 193 215 209 212 213 206 219 215 238 270 254 255 231 229 242 226 212 214 214 210 190 206 95 203 196 171 206 186 203 191 173 178 223
286 241 274 248 240 296 331 297 249 247 232 219 218 213 202 210 218 208 213 216 224 222 215 210 229 271 255 153 226 245 227 213 217 210 216 204 204 205 201 191 208 196 198 196 180 179 178 212 234
270 244 202 372 344 338 343 279 225 240 230 221 210 187 203 190 205 205 212 199 169 213 221 207 238 265 250 247 234 239 216 205 208 224 199 224 205 195 205 222 208 195 197 171 210 186 185 179 210
281 193 300 360 324 278 288 195 246 226 222 210 207 195 207 204 186 218 199 204 210 207 220 205 225 245 248 218 204 217 199 207 196 203 187 202 193 194 209 200 183 203 208 194 196 164 199 173 215
265 327 309 332 316 257 262 239 234 224 225 202 198 216 204 185 200 203 199 201 193 214 197 233 203 220 223 236 215 214 208 220 208 194 183 192 191 194 188 200 182 202 205 172 197 160 198 181 215
271 303 315 315 302 261 246 237 186 229 220 203 200 201 205 186 203 198 202 208 205 212 211 236 189 236 278 247 212 214 232 206 198 195 203 201 183 184 199 171 187 196 204 190 179 197 177 182 216
312 289 324 242 241 263 264 239 245 233 215 205 206 204 193 204 206 201 192 205 203 193 207 227 184 257 279 239 217 204 193 187 194 189 192 188 177 190 183 203 171 168 188 171 174 187 185 201 198
300 315 287 267 263 264 242 234 236 210 185 189 204 192 192 198 198 203 203 193 204 195 194 227 196 227 209 257 245 210 204 184 197 188 199 189 188 184 185 186 169 171 177 197 175 183 181 179 214
281 325 239 258 263 250 236 232 236 218 194 197 203 185 194 202 205 195 201 204 207 195 184 218 209 222 302 252 220 239 206 191 189 189 193 181 178 184 182 188 191 190 182 194 182 186 206 216 203
276 291 229 230 247 228 229 237 216 196 201 205 198 192 184 203 200 195 193 208 199 203 189 236 217 182 237 249 217 206 222 219 202 198 201 195 185 188 176 196 192 178 197 176 198 214 218 193 193
251 243 235 221 249 219 239 229 197 202 182 178 193 185 187 189 191 183 191 206 196 206 195 213 213 191 205 264 206 218 202 229 243 215 198 198 193 191 188 178 180 187 181 181 234 214 178 173 199
262 247 264 221 233 215 227 206 210 199 197 190 191 186 186 183 188 190 182 191 197 195 202 180 211 230 187 205 269 204 205 207 240 229 240 193 189 191 191 193 193 205 195 240 207 199 194 182 173
242 248 239 207 214 212 217 204 210 197 187 196 191 185 182 182 189 187 186 188 191 195 201 187 193 209 198 207 196 207 185 202 200 207 238 235 238 237 211 229 240 221 236 212 203 176 177 180 176
242 243 241 226 214 199 208 209 204 187 193 193 188 187 184 182 189 181 184 186 183 190 190 193 178 187 209 200 194 208 232 246 188 201 210 206 206 198 188 200 223 235 233 196 185 183 180 185 189
234 247 242 213 198 217 210 207 203 198 190 195 187 185 184 183 181 184 182 178 180 182 188 191 180 188 184 200 206 186 208 221 204 237 191 203 196 201 203 193 193 189 193 206 211 185 181 186 190
231 240 216 232 201 212 215 202 197 202 195 191 183 179 187 182 178 178 178 190 189 181 185 182 189 189 177 186 192 198 186 202 199 238 209 206 207 193 195 185 191 207 189 187 189 189 188 180 177
227 229 229 216 210 218 219 202 199 196 190 189 187 185 182 181 178 178 173 172 180 183 180 178 177 180 181 191 184 186 192 197 206 204 195 232 192 228 220 193 198 191 186 188 184 196 194 186 193
221 230 223 217 209 213 201 206 204 201 190 193 194 188 179 179 178 178 181 180 173 171 181 164 175 183 181 191 193 183 203 187 186 194 194 207 183 196 233 234 209 195 190 195 195 190 190 188 189
225 218 223 221 216 206 193 204 197 191 199 186 179 191 180 181 176 176 179 178 172 181 162 187 185 171 189 185 188 179 193 185 213 181 193 196 204 215 199 192 217 217 205 206 195 189 190 191 186
Wind_Speed
70 71 76 68 62 76 64 62 44 52 57 54 74 75 64 44 52 54 59 60 48 53 55 52 55 37 53 47 53 55 44 54 51 61 57 63 57 55 58 37 49 55 68 43 54 62 37 73 63
82 64 74 66 66 77 81 43 79 73 70 65 67 51 71 40 45 40 62 46 63 57 53 34 63 59 53 55 58 55 38 62 54 46 65 65 50 45 52 61 63 79 81 78 48 81 74 67 62
58 82 79 79 80 91 39 75 54 57 66 73 69 56 68 67 64 62 41 55 60 66 60 69 50 57 63 60 55 62 63 59 55 74 87 66 61 74 73 75 43 78 93 83 85 74 76 89 66
69 68 71 72 77 88 66 54 71 64 64 67 70 73 59 70 68 59 58 67 50 63 42 58 59 43 59 42 74 37 75 75 65 71 64 57 84 48 69 71 74 78 47 47 20 51 45 46 27
69 60 67 56 65 80 79 82 70 62 69 64 64 67 48 59 60 56 58 50 54 59 57 56 59 55 61 65 63 69 63 28 28 75 78 42 55 67 37 25 68 68 46 53 25 77 80 53 48
70 67 54 62 59 72 75 89 63 73 49 76 79 64 60 56 47 79 65 51 52 57 45 48 46 46 51 47 34 5 25 18 74 74 39 49 66 78 40 60 50 28 32 36 37 30 51 50 44
67 63 62 57 59 77 93 88 86 64 69 46 74 71 57 55 48 48 46 43 55 49 70 60 56 65 34 33 32 43 33 75 41 53 34 43 39 74 68 37 36 50 53 49 78 73 31 68 31
70 60 58 53 72 82 90 86 80 49 38 56 65 55 65 53 46 67 41 41 40 43 36 38 32 33 30 23 39 49 47 57 65 52 40 71 39 80 69 69 40 41 41 38 44 26 35 45 44
71 68 52 63 80 78 80 50 68 46 56 64 50 50 56 47 48 43 43 40 47 38 36 33 51 32 29 23 39 56 60 37 67 63 64 65 53 59 56 52 52 71 28 40 43 62 41 42 40
79 64 81 82 82 77 70 69 56 54 45 45 48 50 48 53 45 42 40 35 38 38 37 30 31 29 29 27 47 58 59 63 67 54 68 66 35 67 65 65 25 59 63 46 38 48 43 37 54
62 82 82 72 68 72 63 59 68 47 52 60 46 49 44 40 43 40 38 38 38 36 36 30 27 27 29 30 46 56 61 66 66 65 54 58 65 67 45 53 45 58 52 43 52 31 47 48 52
88 73 68 57 57 54 63 51 45 43 53 46 46 45 41 40 38 36 36 36 35 33 32 27 27 27 26 27 42 43 62 67 63 56 60 60 60 62 28 63 63 36 50 44 47 47 41 50 38
74 67 56 51 57 55 51 45 42 43 52 43 44 39 38 43 35 34 33 32 32 31 27 29 26 27 26 32 33 51 65 62 66 67 65 61 59 55 64 54 59 54 52 52 42 47 46 48 37
70 48 52 38 44 49 45 34 44 44 49 40 43 43 38 40 34 32 28 34 45 27 27 26 23 25 25 30 31 44 46 53 59 66 57 64 63 60 60 54 56 54 56 35 36 42 40 42 35
66 52 43 30 38 39 35 44 36 51 44 35 38 30 34 32 38 30 28 30 25 26 28 24 23 24 21 29 28 34 42 57 53 61 51 56 59 58 58 57 28 58 55 48 39 44 39 44 39
58 47 39 28 36 38 35 40 46 49 41 37 36 34 31 37 34 28 29 25 21 25 20 28 23 21 20 33 35 36 45 63 64 61 55 66 65 63 49 59 33 61 54 34 39 47 44 46 45
47 40 31 33 39 43 41 50 41 48 42 37 35 32 28 32 30 27 31 24 22 21 23 25 21 24 29 27 33 41 40 58 60 61 71 76 55 49 65 35 31 48 59 51 45 49 50 52 47
39 35 35 42 44 45 45 50 49 41 38 35 31 29 30 27 25 25 28 24 20 19 19 22 20 24 23 23 37 42 39 43 59 58 66 65 48 64 45 67 36 40 53 38 42 56 55 49 46
36 29 39 44 46 42 44 46 43 38 38 30 29 29 31 25 22 25 23 23 22 19 15 22 21 17 19 26 35 47 49 44 64 60 71 69 70 65 62 60 40 39 39 58 46 52 53 48 51
32 33 42 48 48 46 47 45 42 37 33 32 30 32 30 25 19 25 21 23 21 18 16 17 17 14 9 23 34 41 57 53 52 62 70 56 52 65 58 69 64 71 59 64 59 61 62 52 53
33 40 44 44 44 36 42 48 39 41 39 31 28 26 31 26 20 22 19 18 19 17 19 16 17 19 18 13 25 34 34 54 65 63 76 79 63 76 50 81 77 54 81 54 69 64 49 49 50
36 43 48 40 37 36 45 43 37 35 35 35 28 29 30 29 22 27 20 14 17 15 13 14 15 16 11 14 20 23 34 24 40 73 69 77 80 77 75 55 62 73 66 61 49 49 44 43 59
42 47 54 37 36 41 46 42 45 39 40 41 37 35 30 33 26 23 24 16 13 11 11 17 13 17 13 10 13 19 22 22 24 37 45 60 57 72 76 77 76 76 70 49 48 46 48 50 44
50 49 56 38 42 41 51 46 43 44 47 40 33 34 31 34 31 23 23 19 14 11 11 15 9 14 12 10 20 15 27 24 28 23 38 40 39 45 68 61 51 50 46 45 50 50 49 48 50
47 52 53 49 45 45 51 52 52 49 48 41 38 37 34 37 31 25 23 20 17 14 12 12 19 12 12 10 13 14 14 25 29 27 22 29 31 39 46 46 45 45 44 46 47 47 52 54 60
44 49 51 46 46 58 53 53 55 56 48 43 37 40 38 38 31 28 24 24 18 18 17 13 19 15 16 12 11 18 12 17 17 29 31 30 37 33 37 46 42 41 34 37 50 47 51 52 53
46 51 52 56 51 61 56 59 63 53 46 43 44 40 42 38 35 30 27 27 23 21 18 17 17 18 23 17 14 12 20 16 16 22 23 27 30 39 43 48 43 45 45 42 42 44 46 50 54
54 56 58 60 58 63 62 64 67 54 48 51 44 42 39 37 38 36 28 29 27 28 26 27 24 24 23 21 21 19 18 16 18 20 24 25 30 34 42 41 42 45 44 46 48 51 52 54 59
61 59 63 67 61 66 64 63 66 61 50 49 47 43 42 42 40 39 37 37 29 30 23 33 26 27 25 29 27 24 23 22 24 23 24 24 29 29 26 38 44 44 46 48 51 51 51 54 56
67 66 64 65 68 63 59 68 67 57 59 54 49 48 46 47 44 41 43 41 35 36 31 28 26 33 31 32 31 30 29 26 28 32 31 28 26 27 32 32 35 43 51 56 55 51 54 58 58
Wind_Direction
273 274 271 268 261 263 258 260 245 258 260 262 265 267 260 252 260 261 262 261 264 266 267 272 269 263 267 271 270 272 266 272 273 272 275 273 274 276 276 279 287 285 277 260 285 280 268 272 273
265 264 269 270 275 275 275 257 270 274 270 272 265 285 264 254 254 255 261 266 262 266 263 274 266 267 267 267 267 268 265 268 268 272 270 269 274 276 284 283 283 268 269 273 282 270 269 270 267
250 266 269 269 273 266 232 270 262 256 268 263 274 253 270 262 258 270 258 273 270 266 263 263 267 266 264 266 268 265 264 266 270 267 265 265 276 267 270 267 277 267 266 268 270 272 273 272 268
269 273 269 266 269 272 258 253 272 262 252 261 277 257 277 258 259 265 275 260 274 262 256 264 267 273 265 275 267 285 264 265 264 266 272 278 263 265 275 274 269 268 262 260 270 256 262 262 275
273 276 268 270 271 269 272 265 264 261 259 267 275 280 271 282 268 260 271 275 261 263 265 264 265 267 264 264 263 265 264 298 273 265 264 276 273 262 253 261 263 255 261 255 262 264 269 256 264
268 268 275 265 272 272 268 269 264 271 271 262 260 282 285 274 270 264 270 261 264 267 275 265 270 267 263 268 242 341 269 288 264 263 228 241 252 265 251 258 261 254 257 259 254 266 266 272 256
278 274 271 272 273 268 265 264 268 276 275 268 277 279 283 277 274 279 280 280 264 278 269 261 272 270 272 241 217 231 246 259 253 238 215 235 257 254 248 244 261 257 261 252 259 270 258 266 267
277 275 283 270 263 285 278 267 270 279 257 273 250 264 268 273 276 267 276 277 282 281 286 278 287 272 250 266 200 202 178 216 257 246 206 248 250 261 264 268 244 239 244 250 258 262 252 257 257
282 285 280 267 275 269 274 268 274 265 253 272 257 262 268 269 272 277 276 276 276 285 282 288 255 268 265 247 198 211 233 247 222 228 239 276 236 252 246 241 246 256 263 251 256 263 271 263 253
286 285 289 279 274 276 272 270 269 275 246 262 247 253 258 268 271 273 273 278 279 282 283 288 287 264 262 242 197 208 209 201 254 211 227 240 255 249 247 248 258 250 257 266 261 266 266 260 265
282 299 286 286 279 262 275 262 252 255 246 250 245 251 258 260 266 269 268 272 274 284 287 288 288 268 252 241 210 209 212 217 232 225 205 207 237 250 268 258 263 256 256 251 265 260 261 273 273
296 288 285 276 268 264 260 262 257 246 236 241 243 249 258 260 257 260 266 270 275 277 286 284 290 268 260 252 224 217 200 204 220 216 219 221 250 237 271 247 258 258 262 260 256 267 267 271 252
295 282 283 275 270 255 240 248 248 233 234 237 240 248 257 259 260 262 266 274 282 284 282 280 284 260 256 269 207 211 203 218 219 224 211 234 228 240 243 259 247 259 261 269 259 265 271 276 236
291 271 269 242 227 232 232 233 244 225 233 231 238 252 253 255 260 262 268 269 264 278 292 279 293 262 246 232 215 216 217 227 223 205 237 209 223 250 240 244 252 261 264 252 280 283 278 278 251
293 273 278 231 219 242 226 241 217 227 230 232 241 240 244 252 259 263 263 275 285 289 292 278 289 266 239 217 214 210 217 220 225 221 236 229 237 241 242 243 257 259 258 265 264 257 280 272 242
287 275 265 219 209 214 199 213 216 224 215 224 239 231 241 249 256 261 265 275 270 289 276 283 277 274 248 220 216 217 213 215 220 221 234 229 237 240 252 247 249 255 253 248 261 259 280 278 247
274 262 239 210 202 201 205 206 243 211 205 221 231 238 236 246 252 259 266 278 281 286 288 291 260 287 247 237 215 215 220 214 218 219 219 224 246 248 243 244 251 252 256 266 264 271 266 278 241
257 248 218 231 233 218 190 215 217 206 210 218 222 232 241 238 248 259 265 274 282 270 290 290 247 290 250 237 218 208 227 223 217 225 226 238 255 247 259 246 247 245 258 259 262 277 279 277 261
248 224 204 209 211 202 198 215 206 209 223 225 217 230 242 243 244 258 264 270 278 270 278 285 255 281 251 238 219 216 212 230 219 229 224 233 242 251 258 252 257 264 268 267 273 275 272 266 231
252 213 223 215 199 200 203 215 203 203 219 219 214 229 240 239 237 254 262 276 277 272 260 299 275 282 322 236 215 222 213 221 230 231 228 243 248 249 256 254 253 257 270 267 276 277 271 239 243
234 210 224 225 207 210 213 207 201 203 209 211 219 226 243 242 234 249 259 266 271 279 265 320 299 237 301 258 218 221 229 226 230 231 231 237 246 246 258 250 254 266 257 270 271 270 241 254 256
235 223 220 229 208 219 213 209 208 202 220 221 218 227 236 245 240 250 259 259 279 290 280 329 304 246 290 317 234 225 223 238 238 229 229 234 239 245 246 259 265 258 262 268 246 246 252 254 248
215 220 211 224 206 211 213 215 206 203 205 207 208 217 223 239 244 247 252 263 276 288 305 256 319 326 231 261 327 241 236 238 248 235 241 238 242 243 249 252 256 255 258 250 247 246 251 254 257
220 215 216 213 210 212 211 214 207 206 220 213 208 221 224 237 238 237 252 255 270 284 297 257 281 321 260 279 213 238 235 233 230 242 237 237 235 241 246 247 249 248 245 239 236 244 249 251 254
222 219 217 211 213 218 212 210 209 218 213 210 211 222 226 238 242 236 246 251 259 276 276 281 239 258 319 277 241 240 217 257 242 233 217 219 233 243 242 248 249 245 233 237 239 241 244 244 248
222 215 209 213 216 212 211 212 216 213 218 211 213 221 227 236 242 245 247 252 252 262 269 277 246 264 255 293 306 240 277 304 242 269 229 239 234 234 240 244 241 237 236 249 247 243 247 252 256
221 216 210 203 215 216 209 210 226 213 211 214 215 224 226 230 242 245 248 253 265 264 255 260 272 273 246 254 266 277 248 275 269 282 265 257 253 244 243 243 242 249 241 238 240 242 244 247 252
215 209 205 209 216 215 210 210 224 218 213 218 218 219 227 233 240 247 243 246 252 255 247 242 248 256 262 277 256 259 271 275 283 271 263 279 247 270 263 247 251 250 250 251 250 256 257 259 264
213 212 212 208 213 213 224 220 223 225 214 219 219 215 227 234 240 247 249 248 241 233 247 235 258 278 266 286 284 256 289 270 269 275 269 276 259 270 277 260 265 255 256 259 260 260 262 263 265
212 218 214 214 210 213 223 219 226 233 221 216 221 217 225 228 239 245 251 256 248 257 230 268 264 247 276 277 277 257 284 264 291 268 275 273 280 287 271 266 271 266 267 269 267 264 269 272 268